Weather observations for the past three days for
Eagle Pass - Maverick County Memorial International Airport
Imperial (Metric)
Date Time (cdt) Wind (mph) Vis. (mi.) Weather Sky Cond. Temperature (ºF) Relative Humidity Wind Chill (°F) Heat Index (°F) Pressure Precipitation (in)
Air Dwpt 6 hour altimeter (in) sea level (mb) 1 hr 3 hr 6 hr
Max. Min.
08 08:35 E 6 G 12 0.00 Overcast OVC017 66.2 66.2 100% 29.9 0.0
08 08:15 NE 8 0.00 Overcast OVC019 66.2 66.2 100% 29.9 0.0
08 07:55 E 9 0.00 Overcast OVC019 66.2 66.2 100% 29.9 0.0
08 07:35 E 12 0.00 Overcast OVC019 66.2 64.4 94% 29.9 0.0
08 07:15 E 9 0.00 Overcast OVC019 66.2 64.4 94% 29.9 0.0
08 06:55 E 6 0.00 Overcast OVC019 66.2 64.4 94% 29.89 0.0
08 06:35 N 3 0.00 Overcast OVC018 66.2 64.4 94% 29.88 0.0
08 06:15 NE 6 0.00 Overcast OVC019 66.2 64.4 94% 29.87 0.0
08 05:55 Calm 0.00 Overcast OVC021 66.2 64.4 94% 29.89 0.0
08 05:35 Calm 0.00 Overcast OVC020 66.2 64.4 94% 29.89 0.0
08 05:15 Calm 0.00 Overcast OVC020 66.2 64.4 94% 29.89 0.0
08 04:55 Calm 0.00 Overcast OVC021 66.2 64.4 94% 29.89 0.0
08 04:35 Calm 0.00 Overcast OVC020 66.2 64.4 94% 29.89 0.0
08 04:15 Calm 0.00 Overcast OVC020 66.2 64.4 94% 29.89 0.0
08 03:55 Calm 0.00 Overcast OVC020 66.2 64.4 94% 29.9 0.0
08 03:35 NW 3 0.00 Overcast OVC018 66.2 64.4 94% 29.89 0.0
08 03:15 Calm 0.00 Overcast OVC018 66.2 64.4 94% 29.91 0.0
08 02:55 Calm 0.00 Overcast OVC019 66.2 64.4 94% 29.92 0.0
08 02:35 Calm 0.00 Overcast OVC018 64.4 64.4 100% 29.91 0.0
08 02:15 Calm 0.00 Overcast OVC019 64.4 64.4 100% 29.93 0.0
08 01:55 N 3 0.00 Overcast OVC020 64.4 64.4 100% 29.93 0.0
08 01:35 Calm 0.00 Overcast OVC019 64.4 64.4 100% 29.94 0.0
08 01:15 Calm 0.00 Overcast OVC020 64.4 64.4 100% 29.94 0.0
08 00:55 NW 5 0.00 Overcast OVC021 64.4 64.4 100% 29.94 0.0
08 00:35 NW 6 0.00 Overcast OVC022 66.2 64.4 94% 29.94 0.0
08 00:15 NW 6 0.00 Overcast OVC022 66.2 64.4 94% 29.94 0.0
07 23:55 W 5 0.00 Overcast OVC022 66.2 62.6 88% 29.95 0.0
07 23:35 Calm 0.00 Overcast OVC021 66.2 62.6 88% 29.95 0.0
07 23:15 Calm 0.00 Overcast OVC022 66.2 62.6 88% 29.95 0.0
07 22:55 E 7 0.00 Overcast OVC021 66.2 62.6 88% 29.93 0.0
07 22:35 Calm 0.00 Overcast OVC022 66.2 62.6 88% 29.96 0.0
07 22:15 N 3 0.00 Overcast OVC021 66.2 62.6 88% 29.95 0.0
07 21:55 N 5 0.00 Overcast OVC022 66.2 62.6 88% 29.94 0.0
07 21:35 N 5 0.00 Overcast OVC022 66.2 62.6 88% 29.94 0.0
07 21:15 N 6 0.00 Overcast OVC023 64.4 62.6 94% 29.94 0.0
07 20:55 N 7 0.00 Overcast OVC022 64.4 62.6 94% 29.94 0.0
07 20:35 N 8 0.00 NULL NULL 64.4 62.6 94% 29.92 0.0
07 20:15 N 9 0.00 NULL NULL 66.2 64.4 94% 29.92 0.0
07 19:55 N 5 0.00 Overcast BKN013 OVC019 66.2 64.4 94% 29.94 0.0
07 19:35 W 5 0.00 Overcast BKN013 OVC018 66.2 66.2 100% 29.95 0.0
07 19:15 NW 6 0.00 Overcast OVC017 66.2 64.4 94% 29.94 0.0
07 18:55 N 6 G 12 0.00 Overcast OVC017 66.2 64.4 94% 29.93 0.0
07 18:35 NW 8 0.00 Overcast OVC017 66.2 64.4 94% 29.92 0.0
07 18:15 N 8 0.00 Overcast OVC016 66.2 64.4 94% 29.91 0.0
07 17:55 NW 6 0.00 Overcast OVC016 66.2 64.4 94% 29.93 0.0
07 17:35 NW 7 0.00 Overcast OVC014 66.2 64.4 94% 29.92 0.0
07 17:15 NW 5 0.00 Mostly Cloudy BKN013 64.4 64.4 100% 29.94 0.0
07 16:55 N 7 0.00 NULL NULL 64.4 64.4 100% 29.95 0.0
07 16:30 NE 8 0.00 NULL NULL 64.4 64.4 100% 29.95 0.0
07 16:15 NE 7 0.00 Overcast OVC013 66.2 64.4 94% 29.96 0.0
07 15:55 NE 7 0.00 Overcast OVC013 66.2 64.4 94% 29.97 0.0
07 15:35 NE 8 0.00 Mostly Cloudy BKN013 66.2 64.4 94% 29.97 0.0
07 15:15 NE 7 0.00 Mostly Cloudy BKN013 66.2 64.4 94% 29.98 0.0
07 14:55 NE 8 0.00 Overcast OVC013 66.2 64.4 94% 29.99 0.0
07 14:35 NE 6 0.00 Overcast OVC013 66.2 64.4 94% 30 0.0
07 14:15 N 8 0.00 Overcast OVC013 66.2 64.4 94% 30 0.0
07 13:55 E 7 0.00 Overcast OVC013 66.2 64.4 94% 29.98 0.0
07 13:35 NE 10 G 17 0.00 Mostly Cloudy BKN014 66.2 66.2 100% 29.98 0.0
07 13:15 NE 8 0.00 Mostly Cloudy BKN013 66.2 66.2 100% 30 0.0
07 12:55 E 8 0.00 Overcast OVC013 66.2 66.2 100% 29.99 0.0
07 12:35 E 9 0.00 Overcast OVC014 66.2 66.2 100% 30 0.0
07 12:15 E 10 0.00 Overcast OVC013 68 64.4 88% 30.01 0.0
07 11:55 E 13 G 20 0.00 Overcast OVC014 68 64.4 88% 29.98 0.0
07 11:35 NE 9 0.00 Overcast OVC014 68 64.4 88% 30 0.0
07 11:15 NE 7 0.00 Overcast OVC015 68 64.4 88% 30 0.0
07 10:55 E 9 0.00 Overcast OVC015 68 64.4 88% 29.99 0.0
07 10:35 E 12 G 20 0.00 Overcast OVC014 68 64.4 88% 29.96 0.0
07 10:15 E 10 0.00 Overcast OVC016 68 64.4 88% 29.97 0.0
07 09:55 E 9 0.00 Overcast OVC016 68 64.4 88% 29.98 0.0
07 09:35 E 8 0.00 Overcast OVC015 68 64.4 88% 29.97 0.0
07 09:15 E 7 0.00 Overcast OVC015 68 64.4 88% 29.97 0.0
07 08:55 E 7 G 14 0.00 Overcast OVC015 68 64.4 88% 29.97 0.0
07 08:35 E 9 0.00 Overcast OVC015 68 64.4 88% 29.95 0.0
07 08:15 E 13 0.00 Overcast OVC015 68 64.4 88% 29.95 0.0
07 07:55 NE 8 0.00 Overcast OVC014 68 64.4 88% 29.95 0.0
07 07:35 NE 7 0.00 Overcast OVC016 68 64.4 88% 29.94 0.0
07 07:15 NW 7 0.00 Overcast BKN014 OVC018 68 64.4 88% 29.94 0.0
07 06:55 E 10 G 17 0.00 Overcast OVC012 68 62.6 83% 29.9 0.0
07 06:35 E 8 0.00 Overcast OVC014 69.8 62.6 78% 29.92 0.0
07 06:15 E 5 0.00 Overcast OVC014 69.8 62.6 78% 29.93 0.0
07 05:50 E 9 0.00 Overcast OVC015 69.8 62.6 78% 29.9 0.0
07 05:35 E 9 0.00 Overcast OVC015 69.8 62.6 78% 29.91 0.0
07 05:15 E 5 0.00 Overcast OVC015 69.8 64.4 83% 29.91 0.0
07 04:55 E 6 0.00 Overcast OVC015 69.8 64.4 83% 29.91 0.0
07 04:35 E 10 0.00 Overcast OVC015 69.8 62.6 78% 29.91 0.0
07 04:15 E 8 G 15 0.00 Overcast OVC014 69.8 64.4 83% 29.91 0.0
07 03:55 E 10 0.00 Overcast OVC015 69.8 64.4 83% 29.89 0.0
07 03:35 E 9 0.00 Overcast OVC015 69.8 64.4 83% 29.89 0.0
07 03:15 E 10 G 17 0.00 Overcast BKN015 OVC026 69.8 64.4 83% 29.9 0.0
07 02:55 E 9 0.00 Overcast FEW016 BKN026 OVC044 69.8 64.4 83% 29.91 0.0
07 02:35 E 13 0.00 Overcast BKN027 BKN034 OVC044 69.8 64.4 83% 29.9 0.0
07 02:15 E 12 G 17 0.00 Overcast BKN027 OVC035 71.6 66.2 83% 29.91 0.0
07 01:55 E 10 0.00 Overcast BKN026 OVC033 71.6 66.2 83% 29.91 0.0
07 01:35 E 13 0.00 Mostly Cloudy BKN027 BKN033 71.6 66.2 83% 29.91 0.0
07 01:15 E 7 0.00 Overcast BKN028 OVC035 73.4 68 83% 29.91 0.0
07 00:55 E 9 0.00 Mostly Cloudy SCT030 BKN037 73.4 68 83% 29.92 0.0
07 00:35 E 8 0.00 Partly Cloudy FEW031 SCT038 73.4 68 83% 29.91 0.0
07 00:15 E 10 0.00 Mostly Cloudy BKN033 BKN039 75.2 68 78% 76 29.9 0.0
06 23:55 E 8 0.00 Mostly Cloudy BKN032 BKN037 75.2 68 78% 76 29.9 0.0
06 23:35 E 7 G 18 0.00 Mostly Cloudy BKN035 75.2 68 78% 76 29.89 0.0
06 23:15 E 13 G 18 0.00 Mostly Cloudy BKN035 77 68 74% 79 29.87 0.0
06 22:55 E 15 0.00 Mostly Cloudy BKN033 77 69.8 79% 79 29.85 0.0
06 22:35 E 16 0.00 Mostly Cloudy BKN032 78.8 71.6 79% 82 29.83 0.0
06 22:15 NE 15 0.00 A Few Clouds FEW031 78.8 71.6 79% 82 29.83 0.0
06 21:55 NE 8 0.00 A Few Clouds FEW031 78.8 71.6 79% 82 29.82 0.0
06 21:35 NE 9 0.00 Fair CLR 80.6 71.6 74% 85 29.81 0.0
06 21:15 NE 7 0.00 Fair CLR 80.6 71.6 74% 85 29.81 0.0
06 20:55 NE 8 0.00 Fair CLR 82.4 71.6 70% 87 29.81 0.0
06 20:35 NE 8 0.00 Fair CLR 82.4 71.6 70% 87 29.8 0.0
06 20:15 NE 12 G 17 0.00 Fair CLR 84.2 71.6 66% 90 29.8 0.0
06 19:55 NE 10 0.00 Fair CLR 84.2 71.6 66% 90 29.79 0.0
06 19:35 NE 12 0.00 Fair CLR 86 73.4 66% 93 29.77 0.0
06 19:15 NE 12 G 17 0.00 Fair CLR 86 73.4 66% 93 29.76 0.0
06 18:55 NE 13 0.00 Fair CLR 87.8 73.4 62% 96 29.76 0.0
06 18:35 NE 14 0.00 Partly Cloudy FEW041 SCT046 89.6 73.4 59% 98 29.76 0.0
06 18:15 NE 14 0.00 A Few Clouds FEW043 FEW060 89.6 73.4 59% 98 29.75 0.0
06 17:55 NE 13 G 22 0.00 A Few Clouds FEW060 87.8 73.4 62% 96 29.74 0.0
06 17:35 NE 13 0.00 Fair CLR 89.6 73.4 59% 98 29.74 0.0
06 17:15 E 14 G 20 0.00 Partly Cloudy FEW041 SCT048 SCT055 87.8 73.4 62% 96 29.74 0.0
06 16:55 E 10 G 20 0.00 Partly Cloudy SCT040 SCT047 89.6 73.4 59% 98 29.74 0.0
06 16:35 E 12 G 20 0.00 A Few Clouds FEW040 89.6 73.4 59% 98 29.74 0.0
06 16:15 NE 10 G 20 0.00 Partly Cloudy SCT038 87.8 73.4 62% 96 29.75 0.0
06 15:55 E 12 G 18 0.00 Fair CLR 91.4 75.2 59% 103 29.75 0.0
06 15:35 E 15 G 21 0.00 A Few Clouds FEW034 FEW042 91.4 75.2 59% 103 29.75 0.0
06 15:15 E 12 G 21 0.00 A Few Clouds FEW032 FEW040 87.8 75.2 66% 98 29.76 0.0
06 14:55 NE 14 0.00 A Few Clouds FEW033 FEW041 89.6 75.2 63% 100 29.77 0.0
06 14:35 NE 12 G 17 0.00 A Few Clouds FEW033 89.6 75.2 63% 100 29.77 0.0
06 14:15 NE 9 G 17 0.00 Partly Cloudy FEW034 SCT040 89.6 75.2 63% 100 29.78 0.0
06 13:55 NE 13 0.00 Mostly Cloudy SCT034 BKN040 BKN048 87.8 75.2 66% 98 29.78 0.0
06 13:35 Vrbl 7 G 16 0.00 Partly Cloudy SCT032 SCT039 87.8 75.2 66% 98 29.79 0.0
06 13:15 Vrbl 7 G 13 0.00 Partly Cloudy FEW023 SCT035 SCT040 86 77 75% 97 29.8 0.0
06 12:55 Vrbl 6 0.00 Mostly Cloudy BKN023 BKN031 84.2 77 79% 94 29.81 0.0
06 12:35 NE 5 0.00 Mostly Cloudy FEW019 SCT023 BKN038 84.2 77 79% 94 29.81 0.0
06 12:15 NE 7 0.00 Mostly Cloudy FEW014 SCT022 BKN031 84.2 78.8 84% 96 29.81 0.0
06 11:55 NE 8 0.00 Mostly Cloudy FEW014 FEW023 BKN030 82.4 78.8 89% 92 29.82 0.0
06 11:35 NE 6 0.00 Overcast BKN015 BKN023 OVC028 80.6 78.8 94% 88 29.81 0.0
06 11:15 NE 5 0.00 Overcast BKN015 OVC019 78.8 78.8 100% 83 29.81 0.0
06 10:55 Calm 0.00 Mostly Cloudy BKN013 BKN020 78.8 78.8 100% 83 29.8 0.0
Date Time (cdt) Wind (mph) Vis. (mi.) Weather Sky Cond. Air Dwpt Max. Min. Relative Humidity Wind Chill (°F) Heat Index (°F) altimeter (in) sea level (mb) 1 hr 3 hr 6 hr
6 hour
Temperature (ºF) Pressure Precipitation (in)